Regional Weather Roundup
Issued by NWS Charleston, SC

Current Version | Previous Version | Graphics & Text | Print | Product List | Glossary On
Versions: 1 2 3 4 5 6 7 8 9 10 11 12 13 14 15 16 17 18 19 20 21 22 23 24 25 26 27 28 29 30 31 32 33 34 35 36 37 38 39 40 41 42 43 44 45 46 47 48 49 50
000
ASUS42 KCHS 030112
RWRCHS

REGIONAL WEATHER ROUNDUP
NATIONAL WEATHER SERVICE CHARLESTON SC
900 PM EDT WED SEP 02 2015

NOTE: "FAIR" INDICATES FEW OR NO CLOUDS BELOW 12,000 FEET WITH NO
SIGNIFICANT WEATHER AND/OR OBSTRUCTIONS TO VISIBILITY.

NOT ALL STATIONS ARE QUALITY CONTROLLED BY THE NATIONAL
WEATHER SERVICE. USE DATA WITH CAUTION...ESPECIALLY
DEWPOINT OBSERVATIONS.

SCZ027-030-031-034>040-042>050-030200-
...SOUTHEAST SOUTH CAROLINA...

CITY           SKY/WX    TMP DP  RH WIND       PRES   REMARKS
N CHARLESTON   PTCLDY    80  75  84 SW5       29.99R
WATERFRONT PRK   N/A     82  78  88 VRB3      29.95R HX  91
MOUNT PLEASANT LGT RAIN  81  77  89 CALM      29.99R
JOHNS ISLAND   FAIR      81  77  89 SW6       29.98S
PINOPOLIS        N/A     82  75  78 SW6       29.89F
MONCKS CORNER  FAIR      79  75  89 CALM      29.98S
SUMMERVILLE    FAIR      79  77  94 CALM      30.00R
BEAUFORT MCAS  MOCLDY    78  75  90 S3        30.00R
BEAUFORT ARPT  FAIR      77  77 100 CALM      29.99R
HILTON HEAD IS CLOUDY    75  75 100 CALM      30.01R
WALTERBORO     CLEAR     79  73  83 CALM      30.00R
ALLENDALE      FAIR      77  75  94 CALM      29.99S

...SOUTHERN MIDLANDS AND PEE DEE...

CITY           SKY/WX    TMP DP  RH WIND       PRES   REMARKS
GEORGETOWN     NOT AVBL
KINGSTREE      NOT AVBL
ORANGEBURG     CLEAR     79  72  79 SW7       29.99R
BARNWELL       FAIR      81  75  83 S5        30.00S
AIKEN          FAIR      79  68  69 S6        30.03R
MANNING        FAIR      81  72  74 S3        29.97S
COLUMBIA       PTCLDY    84  72  67 W3        29.96R
SUMTER         NOT AVBL
FLORENCE       PTCLDY    81  73  76 SW5       29.96R
MYRTLE BEACH   CLEAR     82  72  69 SW7       29.98S
N MYRTLE BEACH PTCLDY    81  73  76 SW10      29.96S

$$

GAZ063-065-086>088-099>101-113>116-118-119-134>141-150-030200-
...SOUTHEAST GEORGIA...

CITY           SKY/WX    TMP DP  RH WIND       PRES   REMARKS
SAVANNAH ARPT  CLOUDY    77  74  90 CALM      30.00R
HUNTER AAF     NOT AVBL
FORT STEWART   NOT AVBL
STATESBORO     PTCLDY    76  76 100 CALM      30.00S
SYLVANIA       NOT AVBL
CLAXTON        NOT AVBL

...CSRA...CENTRAL AND FAR SOUTHEAST GEORGIA...

CITY           SKY/WX    TMP DP  RH WIND       PRES   REMARKS
THOMSON        MOCLDY    79  77  93 CALM      30.04R
AUGUSTA-BUSH   PTCLDY    80  73  79 S5        29.98R
AUGUSTA-DANIEL PTCLDY    83  71  67 S7        30.00R
SWAINSBORO     FAIR      79  72  78 CALM      30.01S
VIDALIA        MOCLDY    79  73  83 CALM      30.01R
EASTMAN        CLOUDY    80  80 100 S3        30.02F
HAZLEHURST     FAIR      76  76 100 N3        29.99S
ALMA           CLOUDY    74  73  97 CALM      29.99R
WAYCROSS       CLOUDY    79  78  98 W6        29.94
JESUP          MOCLDY    77  75  94 NE3       29.98F
BAXLEY         CLOUDY    77  73  88 E5        29.99S
BRUNSWICK      CLOUDY    75  73  94 S3        29.98S THUNDER
SAINT SIMONS   CLOUDY    76  75  97 SE6       29.98S

$$

SCZ027-028-034-036>038-045-046-048>050-GAZ119-141-030200-
...LAKE AND SUPPLEMENTAL COASTAL OBSERVATIONS...

STATION/POSITION TIME  TEMP    WIND        PRES    WAVE   SWELL
                       AIR SEA DIR/SP/G            HT/PER HT/PER/DIR
                 (UTC) (F)     (DEG/KT/KT) (MB)    (FT/S) (FT/S/D)
UPR LAKE MARION  NOT AVBL
WINYAH BAY       2345   82     220/  4     1014.0
LAKE MURRAY      0000   84     280/  2/  3 1013.9S
ACE BASIN NERRS  NOT AVBL
FORT PULASKI     0000   78 83  210/  3/  5 1015.9S
SAPELO ISLAND    0000   76     190/  3     1016.0R

$$

ANZ835-935-AMZ111-154-330-350-352-354-370-450-454-472-030200-
...C-MAN AND BUOY OBSERVATIONS...

STATION/POSITION TIME  TEMP    WIND        PRES    WAVE   SWELL
                       AIR SEA DIR/SP/G            HT/PER HT/PER/DIR
                 (UTC) (F)     (DEG/KT/KT) (MB)    (FT/S) (FT/S/D)
BUOY 41004       0050   82 84  210/  6/  6 1015.2R   2/ 8   2/ 8
BUOY 41008       0050   81 84  120/  8/ 10 1015.3F   2/ 7   2/110/ 7
FOLLY BEACH CMAN 0000   81     230/  6/  7 1015.2F
CAPERS NEARSHORE 0008   83     240/ 10/ 14 1015.1F
FRIPP NEARSHORE  0000   81     250/  4/  4 1015.0F


STATION/POSITION TIME  TEMP    WIND        PRES    WAVE   SWELL
                       AIR SEA DIR/SP/G            HT/PER HT/PER/DIR
                 (UTC) (F)     (DEG/KT/KT) (MB)    (FT/S) (FT/S/D)
5E ST. MARYS GA  0021      85                N/A     2/ 8
FRYING PAN BUOY  0050   83 82  220/ 10/ 12 1015.1R   2/ 9   2/120/ 9
BUOY 41025       0050   81 86  330/  2/  4 1014.8R   2/ 8   2/100/ 8
CAPE LOOKOUT NC  0000   81     210/  3/  4 1014.2R
BUOY 41002       0050   83 84  280/  8/  8 1015.1R   2/ 8   2/130/ 8
BUOY 41010       0020   85 87  240/  2/  2 1015.9F
ST AUGUSTINE FL  0100   78 84  250/  2/  3 1017.0R


$$


USA.gov is the U.S. government's official web portal to all federal, state and local government web resources and services.